When you browse on this site, cookies collect data to enhance your experience and personalize the content and advertising you see.
Visit our Privacy Policy to learn more. By continuing to use the site, you agree to this use of cookies and data.
  • In Hungary
  • List of Countries
  • For 7 days
  • Water Temperature
  • Satellite Maps
  • Weather Map
  • News
  • Weather Widgets
  • user-avatar
    Login

    Hourly Weather Liverpool

    Today, 22 February, Friday

    Time Temperature Precipitation Wind Pressure Humidity
    00:00 +9°C° 0 mm 3 mps 771 mmHg 86%
    01:00 +8°C° 0 mm 4 mps 770 mmHg 84%
    02:00 +7°C° 0 mm 4 mps 770 mmHg 83%
    03:00 +7°C° 0 mm 4 mps 770 mmHg 81%
    04:00 +7°C° 0 mm 4 mps 771 mmHg 81%
    05:00 +7°C° 0 mm 4 mps 771 mmHg 80%
    06:00 +7°C° 0 mm 4 mps 772 mmHg 81%
    07:00 +7°C° 0 mm 4 mps 772 mmHg 79%
    08:00 +8°C° 0 mm 4 mps 772 mmHg 77%
    09:00 +8°C° 0 mm 4 mps 772 mmHg 75%
    10:00 +9°C° 0 mm 5 mps 772 mmHg 71%
    11:00 +10°C° 0 mm 5 mps 773 mmHg 68%
    12:00 +13°C° 0 mm 5 mps 773 mmHg 64%
    13:00 +13°C° 0 mm 5 mps 773 mmHg 63%
    14:00 +13°C° 0 mm 6 mps 772 mmHg 63%
    15:00 +14°C° 0 mm 6 mps 772 mmHg 62%
    16:00 +13°C° 0 mm 6 mps 772 mmHg 67%
    17:00 +11°C° 0 mm 6 mps 772 mmHg 71%
    18:00 +10°C° 0 mm 6 mps 772 mmHg 75%
    19:00 +10°C° 0 mm 6 mps 772 mmHg 76%
    20:00 +9°C° 0 mm 6 mps 772 mmHg 78%
    21:00 +9°C° 0 mm 6 mps 772 mmHg 79%
    22:00 +8°C° 0 mm 6 mps 772 mmHg 76%
    23:00 +8°C° 0 mm 6 mps 772 mmHg 73%

    Tomorrow, 23 February, Saturday

    Time Temperature Precipitation Wind Pressure Humidity
    00:00 +8°C° 0 mm 7 mps 772 mmHg 70%
    01:00 +7°C° 0 mm 6 mps 771 mmHg 69%
    02:00 +7°C° 0 mm 6 mps 771 mmHg 69%
    03:00 +7°C° 0 mm 6 mps 771 mmHg 68%
    04:00 +7°C° 0 mm 6 mps 771 mmHg 72%
    05:00 +7°C° 0 mm 6 mps 771 mmHg 76%
    06:00 +7°C° 0 mm 6 mps 771 mmHg 79%
    07:00 +7°C° 0 mm 6 mps 771 mmHg 80%
    08:00 +8°C° 0 mm 6 mps 771 mmHg 80%
    09:00 +8°C° 0 mm 6 mps 771 mmHg 80%
    10:00 +10°C° 0 mm 6 mps 771 mmHg 77%
    11:00 +11°C° 0 mm 6 mps 771 mmHg 73%
    12:00 +14°C° 0 mm 6 mps 771 mmHg 69%
    13:00 +14°C° 0 mm 5 mps 771 mmHg 68%
    14:00 +15°C° 0 mm 4 mps 771 mmHg 67%
    15:00 +15°C° 0 mm 4 mps 771 mmHg 65%
    16:00 +14°C° 0 mm 3 mps 771 mmHg 70%
    17:00 +14°C° 0 mm 2 mps 772 mmHg 75%
    18:00 +13°C° 0 mm 2 mps 772 mmHg 81%
    19:00 +13°C° 0 mm 2 mps 772 mmHg 82%
    20:00 +12°C° 0 mm 2 mps 773 mmHg 84%
    21:00 +12°C° 0 mm 2 mps 773 mmHg 85%
    22:00 +12°C° 0 mm 2 mps 773 mmHg 87%
    23:00 +10°C° 0 mm 2 mps 773 mmHg 89%

    Day after tomorrow, 24 February, Sunday

    Time Temperature Precipitation Wind Pressure Humidity
    00:00 +11°C° 0 mm 1 mps 773 mmHg 91%
    01:00 +10°C° 0 mm 2 mps 774 mmHg 92%
    02:00 +10°C° 0 mm 2 mps 774 mmHg 92%
    03:00 +9°C° 0 mm 2 mps 774 mmHg 93%
    04:00 +9°C° 0 mm 2 mps 774 mmHg 93%
    05:00 +8°C° 0 mm 3 mps 774 mmHg 93%
    06:00 +8°C° 0 mm 3 mps 774 mmHg 92%
    07:00 +8°C° 0 mm 3 mps 774 mmHg 88%
    08:00 +7°C° 0 mm 4 mps 774 mmHg 84%
    09:00 +7°C° 0 mm 4 mps 774 mmHg 80%
    10:00 +10°C° 0 mm 4 mps 774 mmHg 76%
    11:00 +11°C° 0 mm 4 mps 774 mmHg 72%
    12:00 +12°C° 0 mm 4 mps 774 mmHg 68%
    13:00 +13°C° 0 mm 4 mps 774 mmHg 67%
    14:00 +13°C° 0 mm 4 mps 774 mmHg 66%
    15:00 +14°C° 0 mm 3 mps 774 mmHg 66%
    16:00 +13°C° 0 mm 3 mps 774 mmHg 70%
    17:00 +12°C° 0 mm 3 mps 774 mmHg 74%
    18:00 +11°C° 0 mm 3 mps 775 mmHg 78%
    19:00 +10°C° 0 mm 4 mps 775 mmHg 78%
    20:00 +10°C° 0 mm 4 mps 775 mmHg 78%
    21:00 +8°C° 0 mm 4 mps 775 mmHg 78%
    22:00 +8°C° 0 mm 4 mps 775 mmHg 79%
    23:00 +9°C° 0 mm 3 mps 776 mmHg 80%

    25 February, Monday

    Time Temperature Precipitation Wind Pressure Humidity
    00:00 +8°C° 0 mm 3 mps 776 mmHg 81%
    01:00 +8°C° 0 mm 3 mps 776 mmHg 81%
    02:00 +8°C° 0 mm 3 mps 776 mmHg 81%
    03:00 +7°C° 0 mm 3 mps 775 mmHg 81%
    04:00 +7°C° 0 mm 3 mps 776 mmHg 80%
    05:00 +7°C° 0 mm 3 mps 776 mmHg 80%
    06:00 +5°C° 0 mm 3 mps 776 mmHg 80%
    07:00 +7°C° 0 mm 3 mps 776 mmHg 76%
    08:00 +7°C° 0 mm 3 mps 776 mmHg 71%
    09:00 +8°C° 0 mm 3 mps 777 mmHg 67%
    10:00 +9°C° 0 mm 3 mps 777 mmHg 62%
    11:00 +10°C° 0 mm 3 mps 776 mmHg 57%
    12:00 +12°C° 0 mm 3 mps 776 mmHg 53%
    13:00 +12°C° 0 mm 3 mps 776 mmHg 53%
    14:00 +13°C° 0 mm 3 mps 776 mmHg 53%
    15:00 +14°C° 0 mm 3 mps 776 mmHg 53%
    16:00 +12°C° 0 mm 3 mps 776 mmHg 59%
    17:00 +11°C° 0 mm 3 mps 776 mmHg 64%
    18:00 +10°C° 0 mm 3 mps 776 mmHg 69%
    19:00 +9°C° 0 mm 3 mps 776 mmHg 70%
    20:00 +9°C° 0 mm 3 mps 776 mmHg 71%
    21:00 +8°C° 0 mm 3 mps 776 mmHg 73%
    22:00 +8°C° 0 mm 3 mps 776 mmHg 74%
    23:00 +7°C° 0 mm 4 mps 776 mmHg 75%

    26 February, Tuesday

    Time Temperature Precipitation Wind Pressure Humidity
    00:00 +6°C° 0 mm 4 mps 776 mmHg 76%
    01:00 +6°C° 0 mm 4 mps 775 mmHg 76%
    02:00 +7°C° 0 mm 3 mps 775 mmHg 75%
    03:00 +7°C° 0 mm 3 mps 775 mmHg 75%
    04:00 +7°C° 0 mm 3 mps 774 mmHg 74%
    05:00 +5°C° 0 mm 3 mps 774 mmHg 74%
    06:00 +5°C° 0 mm 3 mps 774 mmHg 73%
    07:00 +7°C° 0 mm 3 mps 774 mmHg 71%
    08:00 +7°C° 0 mm 3 mps 774 mmHg 70%
    09:00 +8°C° 0 mm 3 mps 774 mmHg 68%
    10:00 +9°C° 0 mm 3 mps 774 mmHg 65%
    11:00 +11°C° 0 mm 3 mps 774 mmHg 61%
    12:00 +12°C° 0 mm 3 mps 773 mmHg 58%
    13:00 +13°C° 0 mm 3 mps 773 mmHg 58%
    14:00 +14°C° 0 mm 3 mps 772 mmHg 58%
    15:00 +14°C° 0 mm 3 mps 772 mmHg 57%
    16:00 +13°C° 0 mm 3 mps 772 mmHg 63%
    17:00 +13°C° 0 mm 2 mps 772 mmHg 68%
    18:00 +12°C° 0 mm 2 mps 771 mmHg 74%
    19:00 +10°C° 0 mm 2 mps 771 mmHg 77%
    20:00 +10°C° 0 mm 2 mps 771 mmHg 80%
    21:00 +9°C° 0 mm 2 mps 771 mmHg 83%
    22:00 +9°C° 0 mm 2 mps 771 mmHg 84%
    23:00 +8°C° 0 mm 2 mps 771 mmHg 86%

    27 February, Wednesday

    Time Temperature Precipitation Wind Pressure Humidity
    00:00 +8°C° 0 mm 2 mps 771 mmHg 87%
    01:00 +7°C° 0 mm 2 mps 770 mmHg 88%
    02:00 +7°C° 0 mm 2 mps 770 mmHg 89%
    03:00 +7°C° 0 mm 2 mps 770 mmHg 90%
    04:00 +7°C° 0 mm 2 mps 770 mmHg 90%
    05:00 +6°C° 0 mm 2 mps 770 mmHg 90%
    06:00 +7°C° 0 mm 1 mps 770 mmHg 91%
    07:00 +8°C° 0 mm 1 mps 770 mmHg 88%
    08:00 +8°C° 0 mm 1 mps 770 mmHg 85%
    09:00 +9°C° 0 mm 1 mps 770 mmHg 82%
    10:00 +11°C° 0 mm 1 mps 769 mmHg 77%
    11:00 +12°C° 0 mm 1 mps 769 mmHg 72%
    12:00 +13°C° 0 mm 1 mps 769 mmHg 66%
    13:00 +14°C° 0 mm 1 mps 768 mmHg 64%
    14:00 +15°C° 0 mm 1 mps 768 mmHg 61%
    15:00 +15°C° 0 mm 1 mps 767 mmHg 58%
    16:00 +14°C° 0 mm 1 mps 767 mmHg 63%
    17:00 +13°C° 0 mm 1 mps 767 mmHg 69%
    18:00 +12°C° 0 mm 2 mps 767 mmHg 74%
    19:00 +11°C° 0 mm 1 mps 767 mmHg 77%
    20:00 +11°C° 0 mm 1 mps 767 mmHg 80%
    21:00 +11°C° 0 mm 1 mps 767 mmHg 83%
    22:00 +10°C° 0 mm 1 mps 767 mmHg 84%
    23:00 +10°C° 0 mm 1 mps 767 mmHg 85%
    Show more